COSMOS 798

Satellite information

Favourite Embed

Satellite Type and Status

PAYLOADIN ORBIT

Key statistics

Satellite COSMOS 798 at a glance.

Uptime

17996

Days in orbit

Revolutions

≈ 12.4

Per day

Orbit

LEO

Low Earth Orbit

Inclination

74.1

Latest

Satellite identification and parameters

Extended collection of information and parameters for COSMOS 798.

Object identification

Identified? True

Debris? False

Object name: COSMOS 798

International designator: 1976-008H

Object number (NORAD): 8614

Object ID (CCSDS): 8614

Country: COMMONWEALTH OF INDEPENDENT STATES (CIS)

Current information (Y/N): Y

RCS size: MEDIUM

Orbital parameters

Period: 116.34 minutes

Inclination: 74.0583 deg

SMA: 7894.279 km

Apoapsis: 1553.584 km

Periapsis: 1478.703 km

RAAN: 5.5708 deg

Eccentricy: 0.0047427

Argument of periapsis: 41.8371 deg

Mean anomaly: 329.9084 deg

Mean motion: 12.37753276 rev/day

Mean motion (dot): -0.00000012 rev/day2

B* drag term: 0.000025436 1/REarth

Two-line elements (TLE)

Creation date: May 5, 2025, 2:11 a.m.

Reference frame: TEME

Reference center: EARTH

Epoch: May 4, 2025, 11 p.m. UTC

TLE line 0: 0 COSMOS 798

TLE line 1: 1 08614U 76008H 25124.95858903 -.00000012 00000-0 25436-4 0 9999

TLE line 2: 2 08614 74.0583 5.5708 0047427 41.8371 329.9084 12.37753276226076

Live tracking on map

Real-time ground track for satellite COSMOS 798.

In-orbit conjunctions

There are no conjunctions computed for COSMOS 798, at the moment. Check back to stay up to date, as we update our databases every day.

Go to all conjunctions

Associated space launch

Military communications satellites

COSMOS 798 was lifted into orbit during the mission ‘Kosmos-3M | Strela-1M 105-112’, on board a Kosmos-3M space rocket.

The launch took place on Jan. 28, 1976, 10:39 a.m. from 132/1 (132L).

For more information about the launch, click the button.

Launch to space Kosmos-3M | Strela-1M 105-112
Kosmos-3M | Strela-1M 105-112

Agency: N/A

Status: Launch Successful

Launch date: Jan. 28, 1976, 10:39 a.m. UTC

Rocket: Kosmos-3M

Launch pad: 132/1 (132L)

Location: Plesetsk Cosmodrome, Russian Federation

...

Latest news about this satellite

There are no fresh news available about this satellite. Check back as we update our databases every day.


Newsletter sign-up

Weekly statistics, charts and insights to help you stay on top of the space industry.